This demonstration page uses our WeatherBlox Daily Observations layout. Learn more.

Left ArrowRight Arrow

31.84235, -102.49876

Hourly Observations for March 11, 2018

Temp ( °F °C ) Dew Point ( °F °C ) Humidity (%) Winds ( mph kmh ) Pressure ( in mb ) Visibility ( mi km ) Precip ( " mm )
12:53 am 00:53 Mostly Clear 71 21.7 19 -7.2 14 14 NW 14 22 29.76 1008 10 16 0.00 0.00
1:53 am 01:53 Mostly Clear 69 20.6 21 -6.1 16 16 NW 10 17 29.76 1008 10 16 0.00 0.00
3:53 am 03:53 Hazy 66 18.9 20 -6.7 17 17 NNE 31 50 29.78 1008 5 8 0.00 0.00
4:53 am 04:53 Clear 59 15 36 2.2 42 42 NE 16 26 29.85 1011 10 16 0.00 0.00
5:10 am 05:10 Mostly Cloudy 59 15 41 5 51 51 NNE 14 22 29.94 1014 10 16 0.00 0.00
5:41 am 05:41 Cloudy 57 13.9 34 1.1 42 42 NE 29 46 29.94 1014 7 11 0.00 0.00
5:53 am 05:53 Cloudy 57 13.9 31 -0.6 37 37 NE 29 46 29.91 1013 9 14 0.00 0.00
6:53 am 06:53 Partly Cloudy 54 12.2 26 -3.3 34 34 NE 20 31 29.98 1015 10 16 0.00 0.00
7:53 am 07:53 Cloudy 53 11.7 26 -3.3 35 35 NE 16 26 30.02 1017 10 16 0.00 0.00
8:53 am 08:53 Cloudy 54 12.2 23 -5 30 30 NE 17 28 30.07 1018 10 16 0.00 0.00
9:53 am 09:53 Cloudy 54 12.2 23 -5 30 30 NE 17 28 30.11 1020 10 16 0.00 0.00
10:53 am 10:53 Cloudy 54 12.2 23 -5 30 30 NE 18 30 30.15 1021 10 16 0.00 0.00
11:53 am 11:53 Cloudy 55 12.8 23 -5 29 29 NE 20 31 30.17 1022 10 16 0.00 0.00
12:53 pm 12:53 Cloudy 55 12.8 16 -8.9 21 21 NNE 17 28 30.20 1023 10 16 0.00 0.00
1:53 pm 13:53 Cloudy 55 12.8 15 -9.4 20 20 NE 16 26 30.20 1023 10 16 0.00 0.00
2:53 pm 14:53 Cloudy 55 12.8 12 -11.1 18 18 NNE 13 20 30.19 1022 10 16 0.00 0.00
3:53 pm 15:53 Mostly Cloudy 57 13.9 10 -12.2 15 15 NE 15 24 30.16 1022 10 16 0.00 0.00
4:53 pm 16:53 Mostly Sunny 59 15 8 -13.3 13 13 NE 18 30 30.17 1022 10 16 0.00 0.00
5:53 pm 17:53 Mostly Sunny 57 13.9 16 -8.9 20 20 NNE 17 28 30.17 1022 10 16 0.00 0.00
6:53 pm 18:53 Mostly Cloudy 55 12.8 16 -8.9 21 21 NNE 13 20 30.19 1022 10 16 0.00 0.00
7:53 pm 19:53 Cloudy 55 12.8 18 -7.8 23 23 NE 10 17 30.21 1023 10 16 0.00 0.00
8:53 pm 20:53 Mostly Cloudy 53 11.7 17 -8.3 24 24 NNE 6 9 30.23 1024 10 16 0.00 0.00
9:53 pm 21:53 Mostly Cloudy 52 11.1 17 -8.3 25 25 N 5 7 30.25 1024 10 16 0.00 0.00
10:53 pm 22:53 Mostly Cloudy 50 10 19 -7.2 29 29 N 7 11 30.28 1025 10 16 0.00 0.00
11:53 pm 23:53 Mostly Cloudy 48 8.9 20 -6.7 33 33 N 7 11 30.27 1025 10 16 0.00 0.00

Powered by AerisWeather